Content
SEND FEEDBACK

Daily
Averages
Monthly
Summary
United States of America

GARDNERVILLE, NEVADA


Home > North America > United States > Nevada
Elevation: 4726 feet     Latitude: 38 57N     Longitude: 119 46W

WEATHER
 
SELECT A DAY
Number of Records: 177,206;   Date Range: 1/1/95 - 10/30/14
 
SHARE

PRINT THIS DATA

[ ← Previous Day ]
WEATHER ALMANAC - AUGUST 8, 2014
[ Next Day → ]
[ °C ]   °F
Weather ElementAverageHighLow
Temperature65.3 °F82 °F (1:53 pm)48 °F (5:53 am)
Dewpoint43 °F50 °F (12:53 pm)32 °F (12:53 pm)
Humidity51 %86 % (12:53 am)17 % (12:53 pm)
Barometer30.02 in30.06 in (10:53 am)29.98 in (1:53 pm)
Wind Speed4.2 mph13.8 mph (4:53 pm)
Wind Gust23 mph (12:53 pm)
Weather ElementAverage
Visibility10 mi
Wind DirectionENE (72.5 °)

Weather ElementTotal
Precipitation---
Growing Degree Days15 (Base 50)
Averaged from 24 records on August 8, 2014
WEATHER CONDITIONS BREAKOUT
WIND DIRECTION BREAKOUT
WEATHER BY HOUR - AUGUST 8, 2014
[ °C ]   °F
Local TimeTemperatureDewpointHumidityBarometerVisibilityWind DirectionWind SpeedGust SpeedPrecipitationEventsConditions
12:53 AM54.0 °F48.0 °F80 %30.05 in10.0 miSouth (190°)3.5 mphClear
1:53 AM53.1 °F46.9 °F80 %30.04 in10.0 miCalmClear
2:53 AM51.1 °F46.0 °F83 %30.04 in10.0 miCalmScattered Clouds
3:53 AM50.0 °F45.0 °F83 %30.04 in10.0 miCalmClear
4:53 AM50.0 °F44.1 °F80 %30.05 in10.0 miCalmMostly Cloudy
5:53 AM48.0 °F44.1 °F86 %30.06 in10.0 miCalmClear
6:53 AM48.0 °F43.0 °F83 %30.06 in10.0 miCalmClear
7:53 AM55.0 °F48.0 °F77 %30.06 in10.0 miSouth (170°)3.5 mphClear
8:53 AM64.9 °F48.0 °F54 %30.04 in10.0 miCalmClear
9:53 AM72.0 °F48.0 °F43 %30.02 in10.0 miVariable3.5 mphClear
10:53 AM75.0 °F50.0 °F41 %30.01 in10.0 miVariable4.6 mphClear
11:53 AM75.9 °F48.0 °F37 %30.02 in10.0 miNNE (20°)10.4 mphClear
12:53 PM80.1 °F32.0 °F17 %30.00 in10.0 miSouth (190°)11.5 mph23.0 mphClear
1:53 PM82.0 °F34.0 °F18 %29.98 in10.0 miSouth (190°)10.4 mph19.6 mphClear
2:53 PM81.0 °F35.1 °F19 %29.99 in10.0 miSSW (210°)11.5 mph20.7 mphClear
3:53 PM81.0 °F39.9 °F23 %29.98 in10.0 miVariable6.9 mph17.3 mphClear
4:53 PM80.1 °F42.1 °F26 %29.98 in10.0 miSSW (210°)13.8 mph19.6 mphClear
5:53 PM79.0 °F41.0 °F26 %29.98 in10.0 miSouth (180°)9.2 mph23.0 mphClear
6:53 PM75.0 °F39.9 °F28 %30.00 in10.0 miSSW (200°)5.8 mphClear
7:53 PM71.1 °F39.9 °F32 %30.02 in10.0 miSouth (180°)5.8 mphClear
8:53 PM66.0 °F42.1 °F42 %30.01 in10.0 miCalmClear
9:53 PM62.1 °F42.1 °F48 %30.02 in10.0 miCalmClear
10:53 PM59.0 °F43.0 °F55 %30.01 in10.0 miCalmClear
11:53 PM54.0 °F42.1 °F64 %30.02 in10.0 miCalmClear
Hourly data recorded from KTVL, located miles away from Gardnerville, Nevada







STORIES FROM OUR PARTNERS